Tracking 23611 objects as of 17-Sep-2021
HD Live streaming from Space Station
objects crossing your sky now
Track INSPIRATION-4

DELTA 1 DEB

Track DELTA 1 DEB now!
10-day predictions


NORAD ID: 37671
Int'l Code: 1978-026KJ
Perigee: 796.1 km
Apogee: 839.4 km
Inclination: 98.8 °
Period: 101.1 minutes
Semi major axis: 7188 km
RCS: 0.0135 m2 (small)
Launch date: March 5, 1978
Source: United States (US)
Launch site: AIR FORCE WESTERN TEST RANGE (AFWTR)

Note: This is SATELLITE DEBRIS
aabbcc
Your satellite tracking list
Your tracking list is empty




NASA's NSSDC Master Catalog

Two Line Element Set (TLE):
1 37671U 78026KJ  21260.21405856  .00000218  00000-0  11314-3 0  9993
2 37671  98.8493 252.0801 0030095 140.2290 220.1102 14.24377297424879
Source of the keplerian elements: AFSPC